GW4654 Weather Reports


time (UTC)temp
C
wind
direction
speed
KPH
gust
KPH
rain 1hr
cm
rain 24hr
cm
rain mn
cm
humidity
%
barometer
mb
20260504031016 5 236 0.0 0.0 0.00 0.00 0.00 84 1013.5
20260504030514 5 235 0.0 0.0 0.00 0.00 0.00 81 1013.5
20260504030010 5 235 0.0 0.0 0.00 0.00 0.00 80 1013.5
20260504025507 5 235 0.0 0.0 0.00 0.00 0.00 80 1013.6
20260504025004 5 235 0.0 0.0 0.00 0.00 0.00 79 1013.6
20260504024501 5 235 0.0 0.0 0.00 0.00 0.00 79 1013.6
20260504023958 5 235 0.0 0.0 0.00 0.00 0.00 79 1013.6
20260504023455 6 235 0.0 0.0 0.00 0.00 0.00 79 1013.6
20260504022950 6 235 0.0 0.0 0.00 0.00 0.00 78 1013.7
20260504022446 6 235 0.0 0.0 0.00 0.00 0.00 79 1013.6
20260504021943 6 235 0.0 0.0 0.00 0.00 0.00 78 1013.7
20260504021440 5 235 0.0 0.0 0.00 0.00 0.00 80 1013.7
20260504020938 6 235 0.0 0.0 0.00 0.00 0.00 81 1013.5
20260504020434 5 235 0.0 0.0 0.00 0.00 0.00 83 1013.6
20260504015931 6 235 0.0 0.0 0.00 0.00 0.00 79 1013.6
20260504015427 6 235 0.0 0.0 0.00 0.00 0.00 78 1013.7
20260504014923 6 235 0.0 0.0 0.00 0.00 0.00 78 1013.5
20260504014419 6 235 0.0 0.0 0.00 0.00 0.00 78 1013.6
20260504013916 6 235 0.0 0.0 0.00 0.00 0.00 77 1013.7
20260504013415 6 235 0.0 0.0 0.00 0.00 0.00 76 1013.6
20260504012910 7 235 0.0 0.0 0.00 0.00 0.00 76 1013.6
20260504012409 7 235 0.0 0.0 0.00 0.00 0.00 75 1013.4
20260504011905 7 235 0.0 0.0 0.00 0.00 0.00 74 1013.4
20260504011403 7 235 0.0 0.0 0.00 0.00 0.00 72 1013.4
20260504010858 7 235 0.0 0.0 0.00 0.00 0.00 69 1013.4
20260504010354 8 235 0.0 0.0 0.00 0.00 0.00 68 1013.4
20260504005851 8 235 0.0 0.0 0.00 0.00 0.00 65 1013.4
20260504005347 8 235 0.0 0.0 0.00 0.00 0.00 65 1013.5
20260504004845 9 235 0.0 0.0 0.00 0.00 0.00 59 1013.4
20260504004343 9 235 0.0 0.0 0.00 0.00 0.00 57 1013.3
20260504003839 9 235 0.0 0.0 0.00 0.00 0.00 58 1013.3
20260504003336 10 235 0.0 0.0 0.00 0.00 0.00 55 1013.2
20260504002832 10 235 0.0 0.0 0.00 0.00 0.00 54 1013.5
20260504002329 10 235 0.0 0.0 0.00 0.00 0.00 55 1013.2
20260504001827 10 235 0.0 0.0 0.00 0.00 0.00 52 1013.4
20260504001324 10 235 0.0 0.0 0.00 0.00 0.00 55 1013.2
20260504000821 11 235 0.0 0.0 0.00 0.00 0.00 54 1013.1
20260504000318 11 235 0.0 0.0 0.00 0.00 0.00 52 1013.2
20260503235816 11 235 0.0 0.0 0.00 0.00 0.00 53 1013.1
20260503235313 11 233 0.0 3.2 0.00 0.00 0.00 48 1013.2
20260503234810 11 238 0.0 0.0 0.00 0.00 0.00 51 1013.1
20260503234308 12 244 0.0 0.0 0.00 0.00 0.00 49 1013.3
20260503233806 12 244 0.0 0.0 0.00 0.00 0.00 49 1013.2
20260503233301 12 244 0.0 0.0 0.00 0.00 0.00 48 1013.2
20260503232758 12 244 0.0 0.0 0.00 0.00 0.00 49 1013.2
20260503232256 12 244 1.6 3.2 0.00 0.00 0.00 45 1013.2
20260503231754 12 241 0.0 0.0 0.00 0.00 0.00 48 1013.4
20260503231250 12 232 0.0 0.0 0.00 0.00 0.00 45 1013.1
20260503230746 13 237 0.0 0.0 0.00 0.00 0.00 46 1013.1
20260503230243 13 242 0.0 0.0 0.00 0.00 0.00 47 1013.2
20260503225736 13 233 0.0 0.0 0.00 0.00 0.00 43 1013.2
20260503225236 13 232 0.0 0.0 0.00 0.00 0.00 44 1013.3
20260503224733 13 232 0.0 1.6 0.00 0.00 0.00 44 1013.2
20260503224230 13 222 0.0 0.0 0.00 0.00 0.00 41 1013.0
20260503223728 13 246 0.0 1.6 0.00 0.00 0.00 42 1013.2
20260503223225 13 220 4.8 6.4 0.00 0.00 0.00 44 1013.3
20260503222721 13 250 0.0 0.0 0.00 0.00 0.00 42 1013.2
20260503222219 13 226 0.0 1.6 0.00 0.00 0.00 41 1013.3
20260503221718 14 219 3.2 4.8 0.00 0.00 0.00 43 1013.4
20260503221215 14 233 3.2 4.8 0.00 0.00 0.00 41 1013.6
20260503220711 15 249 1.6 4.8 0.00 0.00 0.00 38 1013.5
20260503220207 15 220 3.2 11.3 0.00 0.00 0.00 38 1013.2
20260503215704 15 220 3.2 11.3 0.00 0.00 0.00 38 1013.0
20260503215201 15 221 3.2 4.8 0.00 0.00 0.00 38 1013.2
20260503214700 14 230 0.0 4.8 0.00 0.00 0.00 40 1013.2
20260503214155 14 223 0.0 4.8 0.00 0.00 0.00 41 1013.3
20260503213649 14 217 1.6 3.2 0.00 0.00 0.00 38 1013.2
20260503213145 13 235 0.0 4.8 0.00 0.00 0.00 38 1013.3
20260503212643 14 218 6.4 9.7 0.00 0.00 0.00 40 1013.3
20260503212140 14 261 6.4 6.4 0.00 0.00 0.00 39 1013.2
20260503211638 15 216 1.6 4.8 0.00 0.00 0.00 39 1013.3
20260503211133 15 185 8.0 11.3 0.00 0.00 0.00 37 1013.2
20260503210629 14 226 1.6 4.8 0.00 0.00 0.00 42 1013.0
20260503210127 15 223 0.0 3.2 0.00 0.00 0.00 39 1013.2
20260503205622 15 221 1.6 4.8 0.00 0.00 0.00 39 1013.3
20260503205118 15 219 3.2 4.8 0.00 0.00 0.00 39 1013.3
20260503204615 14 220 3.2 4.8 0.00 0.00 0.00 39 1013.6
20260503204113 13 283 3.2 6.4 0.00 0.00 0.00 40 1013.4
20260503203610 13 238 0.0 0.0 0.00 0.00 0.00 38 1013.5
20260503203108 14 223 1.6 11.3 0.00 0.00 0.00 41 1013.4
20260503202605 14 217 3.2 9.7 0.00 0.00 0.00 39 1013.8
20260503202103 14 224 1.6 11.3 0.00 0.00 0.00 41 1013.6
20260503201601 15 223 3.2 11.3 0.00 0.00 0.00 40 1013.8
20260503201058 13 221 0.0 3.2 0.00 0.00 0.00 42 1013.7
20260503200554 13 227 3.2 6.4 0.00 0.00 0.00 41 1014.0
20260503200050 13 238 3.2 6.4 0.00 0.00 0.00 39 1013.9
20260503195547 15 219 4.8 9.7 0.00 0.00 0.00 40 1013.8
20260503195044 13 220 1.6 3.2 0.00 0.00 0.00 41 1014.3
20260503194541 14 249 1.6 3.2 0.00 0.00 0.00 41 1014.0
20260503194040 14 235 0.0 9.7 0.00 0.00 0.00 40 1014.2
20260503193538 14 237 0.0 3.2 0.00 0.00 0.00 42 1014.3
20260503193033 15 206 6.4 11.3 0.00 0.00 0.00 40 1014.3
20260503192530 15 202 6.4 6.4 0.00 0.00 0.00 38 1014.6
20260503192026 15 221 4.8 11.3 0.00 0.00 0.00 40 1014.6
20260503191523 14 211 4.8 9.7 0.00 0.00 0.00 41 1014.4
20260503191020 14 146 9.7 12.9 0.00 0.00 0.00 43 1014.6
20260503190516 15 239 0.0 6.4 0.00 0.00 0.00 40 1014.5
20260503190014 14 241 4.8 14.5 0.00 0.00 0.00 42 1014.7
20260503185510 14 227 3.2 11.3 0.00 0.00 0.00 41 1014.7
20260503185009 13 230 1.6 9.7 0.00 0.00 0.00 42 1014.9
20260503184506 13 252 3.2 9.7 0.00 0.00 0.00 39 1014.7
20260503184002 13 191 4.8 9.7 0.00 0.00 0.00 43 1015.0
20260503183459 14 211 4.8 11.3 0.00 0.00 0.00 40 1015.1
20260503182956 13 233 3.2 9.7 0.00 0.00 0.00 41 1015.0
20260503182455 14 233 1.6 9.7 0.00 0.00 0.00 44 1015.2
20260503181952 13 163 14.5 22.5 0.00 0.00 0.00 43 1015.1
20260503181449 13 172 11.3 14.5 0.00 0.00 0.00 41 1015.3
20260503180945 13 217 1.6 4.8 0.00 0.00 0.00 43 1015.2
20260503180443 12 217 1.6 6.4 0.00 0.00 0.00 43 1015.4
20260503175940 13 219 0.0 6.4 0.00 0.00 0.00 43 1015.7
20260503175438 13 248 8.0 16.1 0.00 0.00 0.00 38 1015.6
20260503174933 13 203 4.8 6.4 0.00 0.00 0.00 43 1015.7
20260503174432 13 191 6.4 12.9 0.00 0.00 0.00 44 1015.4
20260503173932 12 211 3.2 6.4 0.00 0.00 0.00 44 1015.7
20260503173428 13 182 9.7 12.9 0.00 0.00 0.00 40 1015.5
20260503172925 13 206 3.2 6.4 0.00 0.00 0.00 42 1015.7
20260503172422 13 180 4.8 14.5 0.00 0.00 0.00 40 1015.7
20260503171918 13 220 3.2 6.4 0.00 0.00 0.00 40 1015.8
20260503171415 12 214 3.2 4.8 0.00 0.00 0.00 47 1015.9
20260503170913 12 266 6.4 6.4 0.00 0.00 0.00 40 1015.5
20260503170409 13 227 1.6 12.9 0.00 0.00 0.00 43 1016.2
20260503150801 10 180 8.0 9.7 0.00 0.00 0.00 44 1016.7
20260503150257 11 220 3.2 6.4 0.00 0.00 0.00 50 1016.6
20260503140222 9 226 1.6 4.8 0.00 0.00 0.00 57 1017.3
20260503131151 7 191 3.2 4.8 0.00 0.00 0.00 68 1017.3
20260503130648 6 231 0.0 4.8 0.00 0.00 0.00 68 1017.1
20260503130146 6 197 6.4 6.4 0.00 0.00 0.00 70 1017.2
20260503120106 4 230 0.0 0.0 0.00 0.00 0.00 82 1017.0
20260503110533 0 231 0.0 0.0 0.00 0.00 0.00 99 1016.5
20260503090420 -1 231 0.0 0.0 0.00 0.00 0.00 99 1015.9
20260503081346 -1 231 0.0 0.0 0.00 0.00 0.00 99 1015.9
20260503080843 -1 231 0.0 0.0 0.00 0.00 0.00 99 1016.1
20260503080340 -1 231 0.0 0.0 0.00 0.00 0.00 99 1016.0
20260503072817 0 231 0.0 0.0 0.00 0.00 0.00 99 1015.5
20260503072314 0 231 0.0 0.0 0.00 0.00 0.00 99 1015.6
20260503071809 0 231 0.0 0.0 0.00 0.00 0.00 99 1015.6
20260503071307 0 231 0.0 0.0 0.00 0.00 0.00 99 1015.6
20260503070803 0 231 0.0 0.0 0.00 0.00 0.00 99 1015.6
20260503070301 0 231 0.0 0.0 0.00 0.00 0.00 99 1015.4
20260503060221 1 231 0.0 0.0 0.00 0.00 0.00 99 1015.7
20260503054707 0 231 0.0 0.0 0.00 0.00 0.00 99 1015.8
20260503054205 1 231 0.0 0.0 0.00 0.00 0.00 99 1015.8
20260503053703 1 231 0.0 0.0 0.00 0.00 0.00 99 1015.7
20260503053202 1 231 0.0 0.0 0.00 0.00 0.00 99 1015.8
20260503052657 1 231 0.0 0.0 0.00 0.00 0.00 99 1015.8
20260503052154 1 231 0.0 0.0 0.00 0.00 0.00 99 1016.0
20260503051649 1 231 0.0 0.0 0.00 0.00 0.00 99 1015.9
20260503051147 1 231 0.0 0.0 0.00 0.00 0.00 99 1015.9
20260503050644 1 231 0.0 0.0 0.00 0.00 0.00 99 1015.9
20260503050140 1 231 0.0 0.0 0.00 0.00 0.00 99 1015.9
20260503045638 1 231 0.0 0.0 0.00 0.00 0.00 98 1016.1
20260503045135 1 231 0.0 0.0 0.00 0.00 0.00 98 1016.1
20260503044631 1 231 0.0 0.0 0.00 0.00 0.00 98 1016.1
20260503044129 1 231 0.0 0.0 0.00 0.00 0.00 97 1016.0
20260503043626 1 231 0.0 0.0 0.00 0.00 0.00 97 1016.1
20260503043122 1 231 0.0 0.0 0.00 0.00 0.00 97 1016.2
20260503042619 1 231 0.0 0.0 0.00 0.00 0.00 96 1016.1
20260503042115 1 231 0.0 0.0 0.00 0.00 0.00 96 1016.1
20260503041611 1 231 0.0 0.0 0.00 0.00 0.00 96 1016.1
20260503041110 1 231 0.0 0.0 0.00 0.00 0.00 96 1016.1
20260503040606 1 231 0.0 0.0 0.00 0.00 0.00 95 1016.0
20260503040104 1 231 0.0 0.0 0.00 0.00 0.00 95 1016.3
20260503035600 1 231 0.0 0.0 0.00 0.03 0.03 95 1016.0
20260503035058 1 231 0.0 0.0 0.00 0.03 0.03 94 1015.9
20260503034555 1 231 0.0 0.0 0.00 0.03 0.03 94 1016.4
20260503034052 1 231 0.0 0.0 0.00 0.03 0.03 94 1015.9
20260503033549 2 231 0.0 0.0 0.00 0.03 0.03 93 1016.0
20260503033047 2 231 0.0 0.0 0.00 0.03 0.03 92 1016.1
20260503032545 2 231 0.0 0.0 0.00 0.03 0.03 92 1015.9
20260503032043 2 231 0.0 0.0 0.00 0.03 0.03 92 1016.1
20260503031541 2 231 0.0 0.0 0.00 0.03 0.03 92 1016.2